Location: Unspecified
(0.0000°N, 0.0000°E)
Time: 12:51:04
(UTC+02:00)

Cosmos 1833 Rocket - Visible Passes

Search period start: 30 March 2017 00:00
Search period end: 09 April 2017 00:00
Orbit: 834 x 838 km, 71.0° (Epoch: 28 March)

Date Brightness Start Highest point End Pass type
(mag) Time Alt. Az. Time Alt. Az. Time Alt. Az.
30 Mar 5.1 22:40:11 10° NNW 22:40:54 14° NNW 22:40:54 14° NNW visible
31 Mar 4.3 22:23:27 10° NNW 22:25:57 27° NW 22:25:57 27° NW visible
01 Apr 3.2 22:06:44 10° NNW 22:11:11 54° NW 22:11:11 54° NW visible
02 Apr 2.7 21:50:03 10° NNW 21:55:38 77° WSW 21:56:38 60° S visible
03 Apr 2.6 21:33:21 10° NNW 21:38:58 86° WSW 21:42:19 25° SSE visible
04 Apr 2.6 21:16:41 10° NNW 21:22:18 85° ENE 21:27:56 10° SSE visible
05 Apr 2.6 21:00:02 10° N 21:05:38 76° ENE 21:11:16 10° SSE visible
06 Apr 2.6 20:43:24 10° N 20:48:58 68° ENE 20:54:34 10° SSE visible
07 Apr 2.7 20:26:47 10° N 20:32:18 60° ENE 20:37:50 10° SSE visible
08 Apr 5.6 07:29:12 10° SE 07:32:12 15° ESE 07:35:10 10° ENE visible
